KRF69R EGLL-EKCH

Flight info

Callsign KRF69R
Flight time N/A
Altitude 38000
Route BPK Q295 SOMVA DCT MAVAS DCT ROCZO DCT DOSUR P729 TUDLO
Aircraft A339/H-SADE1E2E3GHIJ3J5M1P2RWXY/LB2D1

Departure

Time 2026-05-01 14:44
Airport London Heathrow Airport (EGLL)

Arrival

Time N/A
Airport Copenhagen Kastrup Airport (EKCH)
Time Latitude Longitude Altitude Speed Heading
2026-05-01 14:13 51.46242 -0.45664 95 ft 0 kts 287°
2026-05-01 14:35 51.46239 -0.45648 92 ft 2 kts 287°
2026-05-01 14:35 51.46234 -0.45627 93 ft 2 kts 287°
2026-05-01 14:35 51.46229 -0.45601 91 ft 3 kts 287°
2026-05-01 14:36 51.46223 -0.45570 94 ft 3 kts 287°
2026-05-01 14:36 51.46217 -0.45538 90 ft 3 kts 287°
2026-05-01 14:36 51.46209 -0.45498 93 ft 5 kts 294°
2026-05-01 14:36 51.46193 -0.45456 92 ft 4 kts 321°
2026-05-01 14:37 51.46192 -0.45454 92 ft 0 kts 324°
2026-05-01 14:40 51.46201 -0.45464 95 ft 4 kts 324°
2026-05-01 14:40 51.46233 -0.45500 94 ft 7 kts 324°
2026-05-01 14:40 51.46289 -0.45524 95 ft 9 kts
2026-05-01 14:41 51.46314 -0.45436 95 ft 10 kts 82°
2026-05-01 14:41 51.46317 -0.45303 95 ft 14 kts 89°
2026-05-01 14:41 51.46317 -0.45140 95 ft 16 kts 90°
2026-05-01 14:41 51.46317 -0.44958 95 ft 17 kts 89°
2026-05-01 14:42 51.46317 -0.44759 95 ft 18 kts 90°
2026-05-01 14:42 51.46326 -0.44544 95 ft 21 kts 89°
2026-05-01 14:42 51.46327 -0.44302 95 ft 23 kts 90°
2026-05-01 14:42 51.46330 -0.44229 96 ft 3 kts 78°
2026-05-01 14:43 51.46358 -0.44164 93 ft 11 kts 44°
2026-05-01 14:43 51.46439 -0.44080 95 ft 16 kts 31°
2026-05-01 14:43 51.46492 -0.44134 94 ft 11 kts 279°
2026-05-01 14:43 51.46491 -0.44591 95 ft 87 kts 269°
2026-05-01 14:44 51.46483 -0.46032 113 ft 164 kts 269°
2026-05-01 14:44 51.46598 -0.49843 1925 ft 165 kts 269°
2026-05-01 14:44 51.46839 -0.51734 2732 ft 186 kts 286°
2026-05-01 14:45 51.47388 -0.53680 3416 ft 204 kts 290°
2026-05-01 14:45 51.48812 -0.58244 4662 ft 254 kts 294°
2026-05-01 14:45 51.49663 -0.60854 5381 ft 270 kts 294°
2026-05-01 14:46 51.50558 -0.63541 6422 ft 275 kts 297°
2026-05-01 14:46 51.53761 -0.67017 8326 ft 299 kts 351°
2026-05-01 14:46 51.55847 -0.66860 9280 ft 306 kts 15°
2026-05-01 14:47 51.57752 -0.65343 10257 ft 309 kts 41°
2026-05-01 14:47 51.59166 -0.62684 10884 ft 322 kts 65°
2026-05-01 14:47 51.59990 -0.59238 11333 ft 341 kts 78°
2026-05-01 14:48 51.61134 -0.51638 13142 ft 354 kts 80°
2026-05-01 14:48 51.61772 -0.47771 14128 ft 360 kts 78°
2026-05-01 14:48 51.63200 -0.39982 15866 ft 371 kts 77°
2026-05-01 14:49 51.64739 -0.31935 17640 ft 381 kts 77°
2026-05-01 14:49 51.66316 -0.23654 19322 ft 391 kts 77°
2026-05-01 14:50 51.67375 -0.18067 20427 ft 397 kts 77°
2026-05-01 14:50 51.69268 -0.08012 22407 ft 409 kts 77°
2026-05-01 14:51 51.70367 -0.02147 23565 ft 415 kts 78°
2026-05-01 14:51 51.72041 0.06818 25169 ft 422 kts 77°
2026-05-01 14:52 51.73746 0.16006 26649 ft 432 kts 77°
2026-05-01 14:52 51.74607 0.20665 27406 ft 436 kts 77°
2026-05-01 14:52 51.76060 0.28545 28612 ft 444 kts 77°
2026-05-01 14:53 51.77230 0.34922 29561 ft 451 kts 77°
2026-05-01 14:53 51.78123 0.39802 30257 ft 456 kts 77°
2026-05-01 14:53 51.79023 0.44733 30893 ft 460 kts 77°
2026-05-01 14:53 51.79929 0.49705 31543 ft 464 kts 77°
2026-05-01 14:54 51.80533 0.53030 31950 ft 467 kts 77°
2026-05-01 14:54 51.81451 0.58098 32506 ft 473 kts 77°
2026-05-01 14:54 51.82378 0.63227 33089 ft 477 kts 77°
2026-05-01 14:54 51.83308 0.68389 33614 ft 481 kts 77°
2026-05-01 14:55 51.84547 0.75283 34287 ft 482 kts 77°
2026-05-01 14:55 51.85478 0.80480 34799 ft 481 kts 77°
2026-05-01 14:55 51.86444 0.85666 35300 ft 482 kts 73°
2026-05-01 14:55 51.87278 0.89085 35634 ft 484 kts 70°
2026-05-01 14:56 51.88561 0.94035 36109 ft 483 kts 70°
2026-05-01 14:56 51.89855 0.99042 36592 ft 482 kts 70°
2026-05-01 14:56 51.91144 1.04056 37096 ft 481 kts 70°
2026-05-01 14:56 51.92426 1.09059 37581 ft 481 kts 70°
2026-05-01 14:57 51.93701 1.14056 38045 ft 480 kts 70°
2026-05-01 14:57 51.96234 1.24021 38195 ft 477 kts 70°
2026-05-01 14:57 51.97492 1.28987 38195 ft 476 kts 70°
2026-05-01 14:58 52.00004 1.38939 38198 ft 477 kts 70°
2026-05-01 14:58 52.02492 1.48837 38195 ft 477 kts 70°
2026-05-01 14:59 52.04992 1.58828 38198 ft 478 kts 70°
2026-05-01 14:59 52.07486 1.68839 38202 ft 478 kts 70°
2026-05-01 15:00 52.11197 1.83823 38213 ft 478 kts 70°
2026-05-01 15:01 52.13650 1.93782 38213 ft 478 kts 70°
2026-05-01 15:01 52.16115 2.03838 38213 ft 478 kts 70°
2026-05-01 15:02 52.18571 2.13901 38210 ft 478 kts 70°
2026-05-01 15:02 52.21019 2.23975 38207 ft 478 kts 70°
2026-05-01 15:03 52.23440 2.33987 38192 ft 478 kts 71°
2026-05-01 15:03 52.25869 2.44078 38193 ft 478 kts 71°
2026-05-01 15:04 52.28289 2.54180 38200 ft 477 kts 71°
2026-05-01 15:04 52.30661 2.64296 38207 ft 476 kts 73°
2026-05-01 15:05 52.32498 2.74570 38207 ft 476 kts 76°
2026-05-01 15:05 52.34342 2.84966 38215 ft 476 kts 76°
2026-05-01 15:06 52.36169 2.95362 38210 ft 476 kts 76°
2026-05-01 15:06 52.37977 3.05759 38220 ft 474 kts 76°
2026-05-01 15:07 52.40147 3.15951 38217 ft 476 kts 67°
2026-05-01 15:07 52.43384 3.25346 38224 ft 478 kts 57°
2026-05-01 15:08 52.47061 3.34412 38228 ft 478 kts 58°
2026-05-01 15:08 52.50723 3.43518 38222 ft 478 kts 58°
2026-05-01 15:09 52.54384 3.52632 38223 ft 477 kts 57°
2026-05-01 15:09 52.58031 3.61744 38223 ft 477 kts 58°
2026-05-01 15:10 52.61646 3.70807 38225 ft 477 kts 58°
2026-05-01 15:10 52.67089 3.84518 38220 ft 477 kts 58°
2026-05-01 15:11 52.72515 3.98259 38217 ft 477 kts 58°
2026-05-01 15:12 52.76098 4.07379 38220 ft 477 kts 57°
2026-05-01 15:12 52.81497 4.21172 38224 ft 476 kts 58°
2026-05-01 15:14 52.90451 4.44221 38224 ft 476 kts 58°
2026-05-01 15:14 52.95782 4.58044 38221 ft 477 kts 58°
2026-05-01 15:15 53.02907 4.76638 38210 ft 477 kts 58°
2026-05-01 15:16 53.10433 4.94825 38238 ft 478 kts 54°
2026-05-01 15:18 53.20044 5.17310 38242 ft 477 kts 55°
2026-05-01 15:19 53.27674 5.35444 38239 ft 477 kts 55°
2026-05-01 15:19 53.33374 5.49082 38242 ft 477 kts 55°
2026-05-01 15:20 53.39036 5.62703 38236 ft 477 kts 55°
2026-05-01 15:21 53.42802 5.71803 38239 ft 477 kts 55°
2026-05-01 15:21 53.46573 5.80947 38233 ft 478 kts 55°
2026-05-01 15:22 53.52223 5.94711 38230 ft 476 kts 55°
2026-05-01 15:22 53.55979 6.03902 38232 ft 477 kts 55°
2026-05-01 15:23 53.59705 6.13055 38235 ft 475 kts 56°
2026-05-01 15:23 53.63429 6.22234 38236 ft 475 kts 56°
2026-05-01 15:24 53.67139 6.31415 38245 ft 473 kts 55°
2026-05-01 15:24 53.70807 6.40523 38252 ft 473 kts 56°
2026-05-01 15:25 53.74475 6.49665 38253 ft 473 kts 56°
2026-05-01 15:25 53.78158 6.58877 38259 ft 473 kts 56°
2026-05-01 15:26 53.81836 6.68110 38247 ft 473 kts 56°
2026-05-01 15:26 53.85512 6.77373 38258 ft 474 kts 56°
2026-05-01 15:27 53.89179 6.86650 38270 ft 473 kts 56°
2026-05-01 15:28 53.94621 7.00476 38272 ft 471 kts 56°
2026-05-01 15:28 53.98253 7.09746 38267 ft 471 kts 56°
2026-05-01 15:29 54.03676 7.23655 38275 ft 471 kts 56°
2026-05-01 15:30 54.10898 7.42295 38279 ft 471 kts 56°
2026-05-01 15:31 54.21632 7.70268 38289 ft 470 kts 56°
2026-05-01 15:32 54.28770 7.89039 38288 ft 471 kts 56°
2026-05-01 15:34 54.39379 8.17207 38309 ft 469 kts 56°